星链-4407 (STARLINK-4407 )

导读 | 豆包AI

STARLINK-4407是美国太空探索技术公司SpaceX星链星座中的一颗卫星,于2022年7月22日发射入轨,属于星链低轨互联网星座组网卫星,承担全球卫星互联网通信组网任务,运行在近地轨道,依托星链大规模星座布局,为全球多个区域提供宽带互联网接入服务。

基本信息
目录编号:
53196
目录名称:
STARLINK-4407
国际标识:
2022-084H
轨道中心:
EARTH
卫星名称:
星链-4407
卫星全名:
星链-4407 (STARLINK-4407 )
卫星状态:
在轨 (已飞行1332 天)
发射日期:
2022-07-22 UTC
国别 :
美国 (US)
星等 :
--
轨道信息
数据来源 国际轨道数据
星历时间: 2026-03-15T00:00:02+0800
11小时前
查看轨道信息
半长轴: 6664.119km
偏心率: 0.0003703
轨道倾角: 97.612°
近地点辐角 309.814°
升交点赤经 160.755°
平近点角 15.858°
近地点: 283.514km
远地点: 288.45km
周期: 90.235分钟
每日圈数: 15.958377
详细信息
固有亮度:
5
最大亮度:
2.5
卫星平台:
Starlink v1.5
覆盖范围:
全球
运营商:
太空探索技术公司
运营商所在国:
美国
制造商(研发单位):
太空探索技术公司
制造商所在国:
美国
使用方式:
暂无
卫星简介
星链(Starlink)计划是由太空探索技术公司(SpaceX)提出的一个巨型低轨卫星互联网星座项目,计划在2019年至2024年间在太空搭建由约1.2万颗卫星组成的“星链”网络,其中1584颗将部署在地球上空550千米处的近地轨道,并从2020年开始工作。该卫星仍在工作。
2D轨道图
3D轨道图
轨道高度分析图
轨道倾角分析图
轨道综合分析图
查看轨道综合分析图